Weather History for KAJZ - January, 2013

Change the Weather History Date:

Tuesday, January 1, 2013

  Actual Average (KMTJ) Record (KMTJ)
Temperature  
Mean Temperature 15 °F 25 °F  
Max Temperature 23 °F 37 °F 45 °F (2004)
Min Temperature 7 °F 13 °F -7 °F (2011)
Degree Days  
Heating Degree Days 50 40  
Month to date heating degree days 40  
Since 1 July heating degree days 2648  
Cooling Degree Days 0 0  
Month to date cooling degree days 0  
Year to date cooling degree days 0  
Moisture  
Dew Point 8 °F    
Average Humidity 82    
Maximum Humidity 90    
Minimum Humidity 65    
Precipitation  
Precipitation 0.00 in 0.02 in 0.07 in (2000)
Month to date precipitation 0.02  
Year to date precipitation 0.02  
Sea Level Pressure  
Sea Level Pressure 30.24 in    
Wind  
Wind Speed 1 mph (NNE)    
Max Wind Speed 8 mph    
Max Gust Speed -    
Visibility 8 miles    
Events Snow    
T = Trace of Precipitation, MM = Missing Value Source: NWS Daily Summary

Daily Weather History Graph

Daily Weather History Graph

Search for Another Location

Airport or City:

Trip Planner

Search our weather history database for the weather conditions in past years. The results will help you decide how hot, cold, wet, or windy it might be!

Date:

Astronomy

Jan. 01, 2013 Rise Set
Actual Time 7:30 AM MST 5:01 PM MST
Civil Twilight 7:00 AM MST 5:31 PM MST
Nautical Twilight 6:27 AM MST 6:04 PM MST
Astronomical Twilight 5:55 AM MST 6:37 PM MST
Moon 9:32 PM MST (1/1) 9:47 AM MST (1/1)
Length of Visible Light 10h 30m
Length of Day
9h 31m
Waning Gibbous, 83% of the Moon is Illuminated
Jan 1
Waning Gibbous
Jan 4
Last Quarter
Jan 11
New
Jan 18
First Quarter
Jan 26
Full

Hourly Weather History & Observations

Time (MST) Temp. Windchill Dew Point Humidity Pressure Visibility Wind Dir Wind Speed Gust Speed Precip Events Conditions
12:15 AM 11.7 °F 5.5 °F 8.6 °F 88% 30.12 in 2.5 mi West 3.5 mph - N/A Snow Light Snow
12:35 AM 11.1 °F 4.9 °F 8.8 °F 90% 30.12 in 3.0 mi West 3.5 mph - N/A Snow Light Snow
12:55 AM 13.3 °F - 10.9 °F 90% 30.13 in 4.0 mi Calm Calm - N/A Snow Light Snow
1:15 AM 13.1 °F - 10.6 °F 90% 30.13 in 4.0 mi Calm Calm - N/A Snow Light Snow
1:35 AM 13.5 °F - 10.8 °F 89% 30.14 in 4.0 mi Calm Calm - N/A Snow Light Snow
1:55 AM 13.5 °F - 10.6 °F 88% 30.15 in 3.0 mi Calm Calm - N/A Snow Light Snow
2:15 AM 12.6 °F - 9.5 °F 88% 30.15 in 3.0 mi Calm Calm - N/A Snow Light Snow
2:35 AM 13.1 °F - 10.4 °F 89% 30.16 in 2.5 mi Calm Calm - N/A Snow Light Snow
2:55 AM 12.0 °F - 9.1 °F 88% 30.16 in 2.5 mi Calm Calm - N/A Snow Light Snow
3:15 AM 11.7 °F - 9.0 °F 89% 30.17 in 2.0 mi Calm Calm - N/A Snow Light Snow
3:35 AM 10.9 °F - 8.1 °F 88% 30.17 in 2.5 mi Calm Calm - N/A Snow Light Snow
3:55 AM 7.9 °F - 4.8 °F 87% 30.18 in 4.0 mi Calm Calm - N/A Snow Light Snow
4:15 AM 7.2 °F - 3.7 °F 86% 30.18 in 10.0 mi Calm Calm - N/A Snow Light Snow
4:35 AM 9.0 °F - 6.4 °F 89% 30.18 in 5.0 mi Calm Calm - N/A Snow Light Snow
4:55 AM 7.9 °F - 4.8 °F 87% 30.19 in 7.0 mi Calm Calm - N/A Snow Light Snow
5:15 AM 8.2 °F -0.3 °F 5.0 °F 87% 30.19 in 10.0 mi NE 4.6 mph - N/A Snow Light Snow
5:35 AM 7.5 °F 0.8 °F 4.3 °F 87% 30.19 in 7.0 mi NNE 3.5 mph - N/A Snow Light Snow
5:55 AM 8.6 °F 2.0 °F 5.7 °F 88% 30.20 in 10.0 mi NNE 3.5 mph - N/A Snow Light Snow
6:15 AM 11.3 °F - 8.4 °F 88% 30.21 in 7.0 mi Calm Calm - N/A Snow Light Snow
6:35 AM 10.4 °F - 7.5 °F 88% 30.21 in 10.0 mi Calm Calm - N/A   Overcast
6:55 AM 11.8 °F - 8.6 °F 87% 30.21 in 10.0 mi Calm Calm - N/A   Overcast
7:15 AM 10.2 °F - 6.8 °F 86% 30.22 in 10.0 mi Calm Calm - N/A Snow Light Snow
7:35 AM 9.5 °F - 6.8 °F 89% 30.23 in 10.0 mi Calm Calm - N/A   Overcast
7:55 AM 7.7 °F - 4.6 °F 87% 30.23 in 10.0 mi Calm Calm - N/A   Overcast
8:15 AM 8.1 °F - 5.4 °F 89% 30.24 in 7.0 mi Calm Calm - N/A   Overcast
8:35 AM 9.0 °F - 5.9 °F 87% 30.25 in 7.0 mi Calm Calm - N/A Snow Light Snow
8:55 AM 10.2 °F - 7.0 °F 87% 30.26 in 5.0 mi Calm Calm - N/A Snow Light Snow
9:15 AM 9.7 °F - 6.6 °F 87% 30.26 in 3.0 mi Calm Calm - N/A Snow Light Snow
9:35 AM 10.4 °F - 7.2 °F 87% 30.27 in 2.5 mi Calm Calm - N/A Snow Light Snow
9:55 AM 12.2 °F - 9.1 °F 88% 30.28 in 2.5 mi Calm Calm - N/A Snow Light Snow
10:15 AM 13.8 °F - 10.4 °F 86% 30.28 in 10.0 mi Calm Calm - N/A   Overcast
10:35 AM 15.3 °F - 9.9 °F 79% 30.28 in 10.0 mi Calm Calm - N/A   Mostly Cloudy
10:55 AM 16.5 °F - 9.3 °F 73% 30.29 in 10.0 mi Calm Calm - N/A   Mostly Cloudy
11:15 AM 15.6 °F - 8.6 °F 74% 30.28 in 10.0 mi Calm Calm - N/A   Mostly Cloudy
11:35 AM 16.7 °F - 9.3 °F 73% 30.28 in 10.0 mi Calm Calm - N/A   Scattered Clouds
11:55 AM 18.9 °F - 9.7 °F 67% 30.27 in 10.0 mi Calm Calm - N/A   Clear
12:15 PM 18.5 °F - 10.0 °F 70% 30.26 in 10.0 mi Calm Calm - N/A   Clear
12:35 PM 19.4 °F - 10.8 °F 69% 30.26 in 10.0 mi Calm Calm - N/A   Clear
12:55 PM 21.6 °F - 11.7 °F 66% 30.25 in 10.0 mi Calm Calm - N/A   Clear
1:15 PM 21.7 °F - 12.0 °F 66% 30.25 in 10.0 mi Calm Calm - N/A   Clear
1:35 PM 21.7 °F - 12.0 °F 66% 30.24 in 10.0 mi Calm Calm - N/A   Clear
1:55 PM 22.3 °F - 12.4 °F 66% 30.24 in 10.0 mi Calm Calm - N/A   Clear
2:15 PM 22.3 °F - 12.7 °F 67% 30.24 in 10.0 mi Calm Calm - N/A   Clear
2:35 PM 23.4 °F - 13.1 °F 65% 30.24 in 10.0 mi Calm Calm - N/A   Clear
2:55 PM 23.4 °F - 13.1 °F 65% 30.25 in 10.0 mi Calm Calm - N/A   Clear
3:15 PM 23.4 °F - 13.1 °F 65% 30.25 in 10.0 mi Calm Calm - N/A   Clear
3:35 PM 22.8 °F - 13.3 °F 67% 30.26 in 10.0 mi Calm Calm - N/A   Clear
3:55 PM 22.8 °F - 12.9 °F 66% 30.26 in 10.0 mi Calm Calm - N/A   Clear
4:15 PM 22.6 °F - 13.1 °F 67% 30.26 in 10.0 mi Calm Calm - N/A   Clear
4:35 PM 20.8 °F - 12.2 °F 69% 30.26 in 10.0 mi Calm Calm - N/A   Clear
4:55 PM 16.9 °F - 10.4 °F 76% 30.26 in 10.0 mi Calm Calm - N/A   Clear
5:15 PM 15.8 °F 10.2 °F 10.2 °F 79% 30.27 in 10.0 mi NE 3.5 mph - N/A   Clear
5:35 PM 13.3 °F - 9.5 °F 85% 30.27 in 10.0 mi Calm Calm - N/A   Clear
5:55 PM 11.5 °F 2.1 °F 7.7 °F 85% 30.27 in 10.0 mi NNE 5.8 mph - N/A   Clear
6:15 PM 11.5 °F 2.1 °F 7.7 °F 85% 30.26 in 10.0 mi NE 5.8 mph - N/A   Clear
6:35 PM 12.7 °F 1.4 °F 9.0 °F 85% 30.27 in 10.0 mi NNE 8.1 mph - N/A   Clear
6:55 PM 12.9 °F 2.6 °F 9.0 °F 84% 30.28 in 10.0 mi North 6.9 mph - N/A   Clear
7:15 PM 11.7 °F 2.3 °F 7.9 °F 85% 30.28 in 10.0 mi North 5.8 mph - N/A   Clear
7:35 PM 10.9 °F 1.4 °F 7.0 °F 84% 30.29 in 10.0 mi NNE 5.8 mph - N/A   Clear
7:55 PM 9.5 °F - 5.7 °F 85% 30.30 in 10.0 mi Calm Calm - N/A   Clear
8:15 PM 9.7 °F -2.4 °F 5.9 °F 85% 30.30 in 10.0 mi ENE 8.1 mph - N/A   Clear
8:35 PM 10.2 °F 2.0 °F 5.2 °F 80% 30.30 in 10.0 mi NE 4.6 mph - N/A   Clear
8:55 PM 7.7 °F - 3.6 °F 83% 30.30 in 10.0 mi Calm Calm - N/A   Clear
9:15 PM 7.0 °F - 3.7 °F 87% 30.31 in 10.0 mi Calm Calm - N/A   Clear
9:35 PM 8.4 °F - 5.5 °F 88% 30.32 in 10.0 mi Calm Calm - N/A   Clear
9:55 PM 7.0 °F - 3.2 °F 84% 30.32 in 10.0 mi Calm Calm - N/A   Mostly Cloudy
10:15 PM 8.1 °F - 4.8 °F 87% 30.33 in 10.0 mi Calm Calm - N/A   Mostly Cloudy
10:35 PM 9.0 °F - 5.4 °F 85% 30.34 in 10.0 mi Calm Calm - N/A   Mostly Cloudy
10:55 PM 9.3 °F - 5.4 °F 84% 30.34 in 10.0 mi Calm Calm - N/A   Overcast
11:15 PM 9.5 °F 3.0 °F 5.7 °F 85% 30.34 in 10.0 mi ENE 3.5 mph - N/A   Overcast
11:35 PM 10.4 °F 4.0 °F 5.9 °F 82% 30.34 in 10.0 mi ESE 3.5 mph - N/A   Overcast
11:55 PM 9.7 °F - 5.9 °F 85% 30.33 in 10.0 mi Calm Calm - N/A   Overcast